This is the latest recevied weather packets stored in our database for station/object EMGATE. If no packets are shown the sender has not sent any weather packets the latest 10 day(s).
| Time | Temp. | Humidity | Pressure | Rain* | Wind** | Luminosity | Snow |
|---|---|---|---|---|---|---|---|
| 1777186445 | 4.44° C | 67% | 1019.4 hPa | 0 mm | - | - | - |
| 1777185545 | 4.44° C | 67% | 1019.4 hPa | 0 mm | - | - | - |
| 1777184645 | 4.44° C | 66% | 1019.2 hPa | 0 mm | - | - | - |
| 1777183745 | 4.44° C | 66% | 1019.4 hPa | 0 mm | - | - | - |
| 1777182845 | 5° C | 67% | 1019.4 hPa | 0 mm | - | - | - |
| 1777181945 | 5° C | 66% | 1019.4 hPa | 0 mm | - | - | - |
| 1777181045 | 5° C | 66% | 1019.3 hPa | 0 mm | - | - | - |
| 1777180145 | 5° C | 66% | 1019.2 hPa | 0 mm | - | - | - |
| 1777179245 | 5.56° C | 65% | 1019.2 hPa | 0 mm | - | - | - |
| 1777178345 | 5.56° C | 64% | 1019.2 hPa | 0 mm | - | - | - |
| 1777177445 | 5.56° C | 64% | 1019.2 hPa | 0 mm | - | - | - |
| 1777176545 | 5.56° C | 64% | 1019.1 hPa | 0 mm | - | - | - |
| 1777175645 | 6.11° C | 64% | 1019.1 hPa | 0 mm | - | - | - |
| 1777174745 | 6.11° C | 64% | 1019 hPa | 0 mm | - | - | - |
| 1777173845 | 6.11° C | 63% | 1019.1 hPa | 0 mm | - | - | - |
| 1777172945 | 6.11° C | 62% | 1018.8 hPa | 0 mm | - | - | - |
| 1777172045 | 6.11° C | 62% | 1018.8 hPa | 0 mm | - | - | - |
| 1777171145 | 6.11° C | 63% | 1018.9 hPa | 0 mm | - | - | - |
| 1777170245 | 5.56° C | 63% | 1018.9 hPa | 0 mm | - | - | - |
| 1777169345 | 6.11° C | 62% | 1018.7 hPa | 0 mm | - | - | - |
| 1777168445 | 6.11° C | 62% | 1018.6 hPa | 0 mm | - | - | - |
| 1777167545 | 6.67° C | 63% | 1018.4 hPa | 0 mm | - | - | - |
| 1777166645 | 6.67° C | 60% | 1018.3 hPa | 0 mm | - | - | - |
| 1777165745 | 7.78° C | 57% | 1018.2 hPa | 0 mm | - | - | - |
| 1777164845 | 8.33° C | 55% | 1018 hPa | 0 mm | - | - | - |
* Rain latest hour (hover to see other rain measurements)
** Current wind speed in m/s (hover to see current wind gust speed)